Temp
14 14 14 14 14 14 14 14 14 14 14 14 14 14 14 14 14 15 15 15 15 15 15 15 15 15 15 15 15 15 15 15 15 15 15 15 15 15 14 14 15 14 14 14 14 14 15 15 15 15 15 15 16 16 16 15 15 15 15 16 16 16 16 16 15 14 15 16 16 15 15 15 15 15 15 15 15 15 14 15 15 15 14 14 14
14 14 14 14 14 13 14 14 14 14 14 14 14 14 14 14 14 14 14 14 14 14 15 15 15 15 15 15 14 15 15 15 15 15 15 15 15 15 14 14 14 14 15 15 15 15 15 15 15 15 15 15 16 16 16 15 15 15 15 16 16 16 17 16 15 15 15 15 15 15 15 15 15 15 16 16 15 15 14 14 15 14 14 14 14
14 14 14 14 13 13 13 13 13 13 13 13 13 13 13 13 13 14 14 14 14 14 14 15 15 15 15 15 14 14 15 15 15 15 15 15 15 15 14 14 14 14 15 16 15 15 15 15 15 15 15 15 15 15 15 15 15 16 16 15 16 17 17 16 16 16 15 15 15 15 15 15 15 15 16 16 16 15 15 15 15 14 14 14 14
14 14 13 13 13 13 13 13 13 12 12 12 12 12 12 13 13 13 13 14 14 14 14 14 14 15 15 14 14 14 14 14 15 15 15 15 14 14 14 15 14 14 14 15 15 15 15 15 15 15 15 15 15 14 14 14 15 16 15 14 16 17 16 16 16 16 16 15 15 15 15 15 15 16 16 16 15 15 15 15 15 15 15 14 14
14 13 13 12 12 12 12 12 12 12 11 11 11 11 12 12 12 12 13 13 13 13 14 14 13 14 14 13 13 14 14 14 15 15 15 14 14 14 14 14 15 14 14 14 14 14 14 15 16 15 15 14 14 14 14 14 15 16 15 15 16 17 17 16 16 17 16 16 16 16 16 15 16 16 16 16 15 15 15 15 15 15 15 15 14
13 13 12 12 12 12 12 12 11 11 11 10 10 10 11 11 12 12 12 12 13 13 13 13 13 13 13 13 13 14 14 14 14 15 15 14 15 14 14 14 15 15 14 14 14 14 15 15 15 15 14 14 14 14 15 15 16 16 16 16 17 16 16 15 16 16 16 16 16 16 15 16 16 16 16 16 16 15 15 15 15 15 15 15 14
13 12 12 12 12 11 11 11 11 11 10 10 10 9 10 10 11 11 11 11 11 12 12 12 13 13 13 13 13 13 14 15 15 15 15 15 15 15 15 15 15 15 15 15 15 15 15 15 15 15 15 15 15 15 15 15 16 16 16 17 17 16 15 15 15 15 15 16 16 16 16 16 16 16 16 17 16 16 16 15 14 14 15 15 15
13 12 12 12 11 11 11 11 10 10 10 9 9 9 9 9 10 10 11 10 10 10 11 11 12 12 13 13 13 13 14 15 15 15 15 15 16 16 16 15 15 15 15 15 15 15 15 15 14 14 15 15 15 15 15 16 16 16 16 16 16 16 16 16 15 15 15 15 16 16 16 16 17 17 17 17 16 16 16 16 15 14 15 15 15
13 12 12 12 11 11 11 11 10 10 9 9 9 9 9 9 9 9 10 9 9 9 9 10 11 12 12 13 13 14 14 14 15 15 15 16 16 16 16 16 15 15 14 14 14 14 14 14 14 14 14 14 15 15 16 16 16 16 16 16 16 16 16 16 15 15 15 15 15 16 16 16 16 17 17 16 16 17 17 17 16 15 15 14 15
12 12 12 11 11 11 11 10 10 9 9 8 8 8 8 8 8 8 8 9 9 9 9 10 10 10 11 12 12 13 14 14 14 14 15 15 15 15 16 16 15 14 14 14 14 14 14 14 15 14 14 15 15 15 15 15 16 16 16 16 16 16 16 15 15 15 15 15 15 16 15 15 16 16 16 16 17 17 17 17 16 14 14 14 14
12 12 11 11 11 11 10 10 10 9 9 8 8 8 7 8 7 7 8 8 8 9 9 9 9 9 10 11 11 12 12 13 14 14 15 15 15 16 15 16 15 14 14 14 13 14 14 14 14 14 14 15 15 15 15 15 15 16 16 16 15 15 16 15 15 16 16 15 15 15 15 15 15 15 15 15 16 16 17 16 15 14 14 13 13
12 11 11 11 11 11 10 10 9 9 8 8 7 7 7 7 7 7 7 7 7 7 7 8 8 8 10 11 11 11 11 12 13 14 14 14 15 15 15 15 15 14 14 13 13 13 13 14 14 14 14 15 15 14 14 14 15 15 15 15 15 15 15 15 15 15 15 15 15 15 15 15 15 15 15 15 15 15 16 16 15 15 14 14 13
11 11 11 11 11 10 10 9 9 8 8 8 7 7 7 7 6 6 6 6 6 6 6 7 8 8 9 10 10 11 11 12 12 13 13 13 14 14 15 14 14 13 13 12 12 13 13 13 14 14 14 14 14 14 14 14 14 14 15 15 15 15 15 15 15 15 15 16 15 15 15 15 15 15 15 15 15 15 15 16 16 15 15 14 13
11 11 11 10 10 10 9 9 8 8 8 8 8 7 7 7 6 6 6 6 6 6 6 6 7 8 8 8 9 10 10 11 11 12 12 12 13 14 14 13 13 12 12 12 12 13 13 13 13 13 13 13 13 13 13 14 14 14 14 14 14 14 15 15 15 15 15 15 15 14 14 15 15 15 15 15 16 15 15 15 15 15 15 14 13
10 10 10 10 9 9 9 8 8 8 8 8 8 7 7 7 6 6 5 5 5 5 5 5 6 6 7 8 8 9 9 10 11 11 11 11 11 12 12 12 12 12 12 12 12 12 13 13 12 12 13 13 13 13 13 13 13 13 13 13 14 14 14 14 14 14 14 14 14 14 14 14 15 15 15 16 16 15 15 14 15 15 14 13 12
10 10 9 9 9 8 8 8 8 8 8 8 8 8 7 7 6 6 5 5 5 5 5 5 5 5 6 7 8 8 9 10 10 11 11 10 9 9 9 10 10 11 11 11 12 12 12 12 12 12 13 13 13 13 13 13 13 13 12 12 12 13 12 12 13 13 14 14 14 14 14 14 14 15 15 15 15 15 15 15 14 14 13 12 11
9 9 9 9 9 8 8 8 7 7 8 8 7 7 7 7 7 6 6 5 5 5 5 5 5 5 5 6 6 7 8 9 10 10 11 11 10 9 8 8 8 8 8 8 9 10 11 11 12 12 12 12 12 12 13 13 13 12 12 11 11 11 11 11 12 12 12 13 13 13 13 13 14 14 14 14 15 15 15 14 13 13 12 11 10
9 9 9 9 9 8 8 8 8 8 8 8 7 7 7 7 7 6 6 6 5 5 5 5 5 5 5 5 5 6 6 8 9 10 10 10 10 10 9 8 8 7 7 7 7 8 9 10 11 11 12 12 12 12 12 12 12 12 12 12 11 11 11 11 11 11 11 12 12 12 12 13 13 13 13 13 13 14 14 14 13 13 13 11 10
9 9 9 9 8 8 8 8 8 8 8 8 8 8 8 7 7 7 7 6 6 6 5 6 6 5 5 5 6 6 6 6 8 8 9 10 10 10 9 9 8 7 7 7 7 7 7 8 9 10 11 12 12 12 12 12 12 12 12 12 12 11 11 11 11 11 11 11 11 12 12 12 13 13 12 13 13 13 14 14 13 13 12 11 11
9 9 9 9 9 8 8 8 8 8 8 8 8 8 8 8 8 8 8 7 7 6 6 6 6 5 5 5 6 6 6 6 7 7 8 8 9 9 9 8 7 7 7 7 7 7 7 7 7 8 9 10 11 11 11 11 11 11 11 11 10 10 11 11 11 11 11 11 11 11 11 11 12 12 12 12 12 12 12 13 13 13 13 12 11
10 9 9 9 9 8 8 8 8 8 8 8 8 8 8 8 8 8 8 8 7 7 6 5 5 5 5 5 5 5 5 6 6 7 7 8 8 8 8 7 6 6 6 6 6 6 6 6 6 7 8 8 9 9 9 10 10 10 10 9 9 10 11 11 11 11 10 10 10 10 10 11 11 11 11 11 11 11 12 12 12 12 12 11 11
10 10 9 9 9 8 8 8 7 7 8 8 8 8 8 8 8 8 8 8 7 7 6 5 5 5 5 5 5 5 5 6 6 6 7 7 7 7 7 7 7 7 6 6 6 6 6 6 6 7 7 7 7 8 8 8 9 9 8 9 9 9 10 10 10 10 10 10 10 9 10 10 10 10 10 10 10 10 11 11 11 11 11 11 11
10 9 9 9 8 8 8 7 7 7 7 8 8 8 8 8 8 7 7 7 7 7 6 6 5 5 5 5 5 5 5 6 6 6 6 6 7 7 7 7 7 7 6 6 6 6 6 6 6 7 7 7 7 7 7 7 8 8 8 8 9 9 9 9 9 9 9 9 9 9 9 9 9 9 9 9 10 10 10 10 10 10 10 10 10
9 9 9 9 8 8 8 8 8 7 8 8 8 7 7 7 7 7 7 6 6 6 6 5 5 5 5 5 6 6 6 6 6 6 6 6 6 6 6 6 6 7 6 6 6 6 6 6 6 6 7 7 7 7 7 7 7 7 7 7 8 8 8 8 8 8 9 8 8 8 8 8 9 9 9 9 9 9 10 9 10 10 10 9 9
9 9 9 9 8 8 7 7 7 7 7 7 7 7 7 7 7 6 6 6 6 6 6 5 5 5 5 5 6 6 6 6 6 6 6 6 6 6 6 6 6 6 6 6 6 6 6 6 6 6 6 6 7 7 7 7 7 7 7 7 7 7 7 8 8 8 8 8 8 8 8 8 8 8 9 9 9 9 9 9 9 10 10 10 10
10 9 9 9 8 8 7 7 7 7 7 7 7 7 7 7 6 6 6 6 5 5 5 5 5 5 5 5 6 6 6 7 7 6 6 6 6 6 6 6 6 6 6 6 6 6 6 6 6 6 6 6 7 7 6 7 7 7 7 7 7 7 6 7 7 7 7 7 8 8 8 8 8 8 8 9 9 9 9 9 10 10 10 10 9
10 9 9 9 9 8 8 7 7 7 7 7 7 7 7 7 6 6 6 6 5 5 5 5 5 5 5 5 6 6 6 6 6 6 6 6 6 6 6 6 6 6 6 6 6 6 6 6 6 6 6 6 7 6 6 6 6 6 6 6 6 6 6 6 6 7 7 7 7 7 8 8 8 8 8 8 8 8 9 9 9 9 9 9 9
10 9 9 9 9 9 8 8 7 7 7 7 7 6 6 6 6 6 6 6 5 5 5 5 5 5 5 5 6 5 5 6 6 6 6 6 6 6 6 6 6 6 6 6 6 6 6 6 6 6 6 6 6 6 6 6 6 6 6 6 6 6 6 6 6 6 6 7 7 7 7 8 8 8 8 8 8 8 8 9 9 9 9 9 9
10 10 9 9 9 9 8 8 8 7 7 7 6 6 6 6 6 6 6 6 6 5 5 5 5 5 5 5 5 5 5 6 6 6 6 6 6 6 6 6 6 6 6 6 6 6 6 6 6 6 5 5 5 5 5 5 6 6 6 6 6 6 6 6 6 6 6 6 7 7 7 7 8 8 8 8 8 8 8 8 8 8 9 9 9
11 10 10 9 9 9 8 8 8 7 7 7 6 6 6 6 6 6 6 6 6 6 6 5 5 5 5 5 5 6 6 6 6 7 7 6 6 6 6 6 6 6 6 6 6 6 5 5 5 5 5 5 5 5 5 5 5 5 5 5 5 6 6 6 6 6 6 6 6 7 7 7 7 8 8 8 8 8 8 8 9 9 9 9 9
10 10 10 10 9 9 8 8 8 7 7 7 7 6 6 6 6 6 6 6 6 6 6 6 6 5 6 6 6 6 7 7 7 7 7 7 7 6 6 6 6 6 6 6 6 6 6 5 5 5 5 5 5 5 5 5 5 5 5 5 5 5 6 6 6 6 6 6 6 6 7 7 7 7 8 8 8 8 8 9 9 9 9 9 9
10 10 10 10 10 9 9 8 8 8 7 7 7 7 6 6 6 6 6 6 6 6 6 6 6 6 6 6 6 7 7 7 7 7 7 7 7 7 6 6 6 6 6 6 6 5 5 5 5 5 5 5 5 5 5 5 5 5 5 5 5 5 5 5 6 6 6 6 6 6 6 7 7 7 7 7 8 8 8 9 9 9 9 9 8
10 10 10 10 9 9 9 9 9 8 8 8 7 7 7 6 6 6 6 6 6 6 6 6 6 7 7 7 7 7 7 7 7 7 7 7 7 6 6 6 6 6 6 6 5 5 5 5 5 4 4 4 4 5 5 5 5 5 5 5 5 5 5 5 5 6 6 6 6 6 6 6 7 7 7 7 7 8 8 8 8 8 8 8 8
9 9 9 9 9 9 9 9 9 9 9 8 8 8 8 7 7 6 6 6 6 6 6 6 6 6 6 7 7 7 7 7 7 7 7 6 6 6 6 6 6 6 5 5 5 5 5 5 4 4 4 4 4 4 4 4 4 5 5 5 5 5 5 5 6 6 6 6 6 6 6 6 7 7 7 7 7 7 8 8 8 8 8 8 7
9 9 9 9 9 9 9 9 9 9 9 9 9 8 8 8 7 7 7 7 7 6 6 6 6 6 6 6 6 6 6 7 6 6 6 6 6 6 6 6 5 5 5 5 5 5 5 4 4 4 4 4 4 4 4 4 4 4 4 5 5 5 5 5 6 6 6 6 6 6 6 7 7 7 7 7 7 7 7 7 8 7 7 7 7
9 9 9 9 9 9 9 9 9 9 9 9 8 8 8 8 7 7 7 7 7 7 6 7 7 6 6 6 6 6 6 6 6 6 6 6 6 6 6 5 5 5 5 5 5 4 4 4 4 4 4 4 4 4 4 4 4 4 4 5 5 5 5 5 6 6 6 6 6 6 6 7 7 7 7 7 7 7 7 7 7 7 7 7 6
9 9 9 9 9 9 9 9 9 8 8 8 8 8 8 8 8 7 7 7 7 7 7 7 7 7 7 7 6 6 6 6 6 6 6 6 6 6 5 5 5 5 5 5 4 4 4 4 4 4 3 3 3 4 4 4 4 4 4 5 5 5 5 5 5 5 5 6 6 6 6 6 7 7 7 7 7 6 7 7 7 6 6 6 6
9 9 9 9 9 9 9 8 9 9 8 8 8 8 8 8 8 8 7 7 7 7 7 7 7 7 7 7 7 6 6 6 6 6 6 6 5 5 5 5 5 5 5 4 4 4 4 3 3 3 3 3 3 3 3 3 4 4 4 4 5 5 5 5 5 5 5 5 6 6 6 6 7 7 7 6 6 6 6 6 6 6 6 6 6
9 9 9 9 9 9 9 8 8 9 9 8 8 8 8 8 9 8 7 7 7 7 7 7 7 7 7 7 7 7 6 6 6 6 6 6 5 5 5 5 5 4 4 4 4 4 4 3 3 3 3 3 3 3 3 3 3 4 4 4 4 4 4 4 5 5 5 5 5 6 6 6 6 6 6 6 6 6 6 6 6 6 6 6 6
9 9 9 9 9 9 8 8 8 8 9 8 8 8 8 8 9 8 8 7 7 7 7 7 7 7 7 7 7 7 6 6 6 6 6 6 5 5 5 5 5 4 4 4 4 4 3 3 3 3 3 3 3 3 3 3 3 4 4 4 4 4 4 4 4 4 5 5 5 5 5 6 6 6 6 6 6 6 6 6 6 6 6 5 5
9 9 8 8 8 8 8 8 8 8 9 9 8 8 8 8 8 8 8 8 7 7 7 7 7 7 7 7 7 7 7 6 6 6 6 6 5 5 5 5 5 5 5 4 4 4 3 3 3 3 3 3 3 3 3 3 3 3 3 3 3 3 4 4 4 4 4 4 5 5 5 5 6 6 6 6 6 6 6 6 5 5 5 5 5
9 9 9 8 8 8 8 8 8 8 9 9 9 8 9 8 8 8 8 8 8 7 7 8 8 8 7 7 7 7 7 7 6 6 6 6 6 5 5 5 5 5 5 4 4 4 4 3 3 3 3 3 3 3 3 3 3 3 3 3 3 3 3 3 3 4 4 4 4 4 5 5 5 6 6 6 6 6 6 6 5 5 5 5 5
10 10 9 9 9 9 8 8 8 8 9 9 9 9 9 8 8 8 8 8 8 8 8 8 8 8 7 7 7 7 7 7 7 6 6 6 6 6 5 5 5 5 5 5 4 4 4 4 3 3 3 3 2 2 2 3 3 3 3 3 2 3 3 3 3 3 3 4 4 4 4 5 5 5 5 6 6 6 6 6 6 5 5 5 5
10 10 9 9 9 9 9 9 9 9 9 9 9 9 8 8 8 8 8 8 8 8 8 8 8 8 8 7 7 7 7 7 7 6 6 6 6 6 6 5 5 5 5 5 4 4 4 4 4 3 3 3 2 2 2 2 2 2 2 2 2 2 2 3 3 3 3 3 3 3 4 4 5 5 5 5 6 6 5 5 5 5 5 5 5
10 10 9 9 9 9 9 9 9 9 9 9 9 9 9 9 9 8 8 8 8 8 8 8 8 8 8 8 7 7 7 7 7 7 6 6 6 6 6 6 5 5 5 5 4 4 4 4 4 4 3 3 3 2 2 2 2 2 2 2 2 2 2 2 2 2 2 2 3 3 3 3 4 4 5 5 5 5 5 5 5 5 5 5 5
10 10 10 9 9 9 9 9 9 9 9 9 9 9 9 9 9 9 9 9 9 9 9 8 8 8 8 8 7 7 7 7 7 7 7 6 6 6 6 6 5 5 5 5 5 4 4 4 4 4 4 3 3 3 2 2 2 2 2 2 2 2 2 2 2 2 2 2 2 2 3 3 3 3 4 4 4 5 5 5 5 5 5 5 5
10 10 10 10 10 9 9 9 9 9 9 9 9 9 9 9 9 9 9 9 9 9 9 8 8 8 8 8 7 7 7 7 7 7 7 6 6 6 6 6 6 5 5 5 5 5 5 4 4 4 4 4 3 3 3 2 2 2 2 2 2 2 2 2 2 2 2 2 2 2 2 3 3 3 3 4 4 4 4 5 5 4 4 5 5
10 10 10 10 10 9 9 10 9 9 9 9 9 9 9 9 9 9 9 9 9 9 9 8 8 8 8 8 7 7 7 7 7 7 7 6 6 6 6 6 6 5 5 5 5 5 5 5 4 4 4 3 3 3 3 2 2 2 2 1 2 2 2 2 2 2 2 2 2 2 2 2 2 3 3 3 3 4 4 4 4 4 4 4 4
10 10 10 10 10 10 10 10 9 9 9 9 9 9 9 9 9 9 9 9 9 8 8 8 8 8 8 7 7 7 7 7 7 7 7 6 6 6 6 6 6 5 5 5 5 5 5 5 4 4 4 4 3 3 3 3 2 2 1 1 1 2 2 2 2 2 2 2 2 2 2 2 2 2 3 3 3 3 3 4 4 4 4 4 4
10 10 10 10 10 10 10 10 9 9 9 9 9 9 9 9 9 9 9 8 8 8 8 8 8 8 7 7 7 7 7 7 7 7 6 6 6 6 6 6 6 5 5 5 5 5 5 5 4 4 4 4 4 3 3 3 2 2 2 2 2 2 2 2 2 2 2 2 2 2 2 2 1 2 2 3 3 3 3 3 3 4 4 4 4
10 10 10 10 10 10 10 10 10 9 9 9 9 9 9 9 9 9 8 8 8 8 8 8 8 7 7 7 7 7 7 7 7 6 6 6 6 6 6 6 6 5 5 5 5 5 5 5 5 4 4 4 4 3 3 3 3 2 2 2 2 2 2 2 2 2 2 2 2 2 1 1 1 1 2 2 2 2 3 3 3 3 3 4 4
Height
818 818 817 816 815 813 812 810 809 808 807 806 805 804 803 802 800 798 796 794 791 789 787 784 782 780 778 776 775 773 772 771 771 771 770 770 771 773 774 775 775 773 774 778 780 780 781 781 783 784 785 786 787 789 791 793 796 797 798 798 798 799 801 803 806 808 810 811 814 816 818 818 820 822 823 825 826 828 829 830 832 833 834 836 837
819 818 817 816 815 813 812 810 809 808 807 807 806 805 804 802 801 799 796 794 792 789 787 785 783 781 779 777 776 774 772 771 771 771 771 770 771 773 775 776 777 776 776 778 779 779 781 781 782 783 785 787 788 789 791 793 795 796 796 797 797 798 798 800 804 806 808 810 812 814 815 817 818 820 821 822 824 826 827 828 830 832 833 834 835
819 819 818 817 815 814 812 811 810 809 808 807 806 805 805 803 802 800 797 795 793 791 789 786 784 782 780 779 777 776 774 772 772 772 771 771 772 775 776 776 778 778 778 778 778 779 780 781 782 783 785 787 787 789 791 792 793 793 795 797 797 796 797 799 801 803 805 807 810 811 813 816 817 818 819 821 822 824 825 827 829 830 832 833 834
820 819 818 818 816 815 813 811 810 809 809 808 807 806 805 804 803 801 799 797 795 793 791 788 786 784 782 781 779 777 775 773 773 772 772 773 774 776 777 777 777 778 779 779 779 779 781 781 782 783 784 785 786 789 790 791 791 791 793 795 795 794 796 798 799 800 801 804 807 808 810 813 815 816 818 820 822 823 824 826 828 829 831 832 832
820 820 819 818 817 815 813 812 812 811 811 810 808 808 806 805 804 802 800 798 796 794 793 790 788 786 784 783 781 779 777 776 774 774 774 775 776 777 777 777 777 778 780 781 780 781 781 781 782 783 784 785 786 788 788 789 790 791 791 793 793 793 795 797 798 798 799 801 803 806 808 811 814 815 817 819 821 823 824 825 826 828 830 831 831
821 820 820 819 818 816 815 814 813 813 812 811 810 809 808 807 805 804 802 800 798 796 795 793 791 789 787 786 784 782 780 779 777 777 777 777 777 778 778 778 778 779 780 781 781 781 781 782 782 783 785 786 786 787 787 787 788 790 790 791 792 792 794 797 798 798 798 799 801 804 807 810 812 814 816 817 819 821 822 823 825 827 828 830 830
821 821 821 820 819 817 817 816 816 815 814 813 812 810 810 809 807 805 803 802 800 799 797 795 793 791 790 788 787 785 782 781 780 780 779 778 779 779 779 780 780 780 781 781 782 782 782 782 784 784 784 783 784 786 787 787 787 788 789 790 790 792 794 796 798 800 801 800 800 803 806 808 810 811 814 816 817 819 819 821 824 826 827 828 829
822 822 822 821 820 819 819 819 817 817 816 815 814 812 811 810 809 807 805 803 803 801 800 798 796 794 792 790 789 787 784 783 783 782 781 780 780 780 781 781 781 781 782 782 783 783 783 784 785 786 785 783 784 786 786 786 786 788 789 789 789 791 792 794 796 799 802 801 800 801 804 806 808 810 812 814 816 817 817 819 821 824 826 827 828
823 823 823 822 822 821 821 821 819 819 817 816 815 814 813 812 811 809 808 806 805 804 802 801 799 797 794 792 791 789 787 785 785 785 784 783 782 782 782 782 782 782 783 783 785 785 786 786 786 787 786 784 784 785 785 786 786 787 788 789 789 790 791 793 794 796 800 802 801 801 803 805 806 808 810 812 813 814 816 817 819 821 824 826 827
824 824 824 824 824 824 823 823 821 820 819 818 817 816 815 814 813 812 810 809 807 806 804 803 801 800 797 795 793 790 789 789 789 788 787 786 785 784 783 783 783 783 783 784 785 785 786 785 785 785 784 783 783 784 785 786 786 787 789 789 790 790 791 792 793 794 797 799 799 800 802 805 807 807 809 811 812 812 814 816 817 820 823 825 827
825 825 826 826 826 825 825 824 823 822 821 820 819 819 818 816 815 814 813 811 810 808 807 805 803 803 801 799 796 794 793 792 792 791 789 789 787 785 785 784 783 783 784 784 785 785 785 784 783 783 783 783 783 784 784 786 787 788 789 789 789 789 789 791 791 792 794 795 796 797 799 802 805 806 808 809 811 812 813 814 816 818 821 823 826
827 827 827 828 827 827 827 826 825 824 823 823 822 822 820 819 817 816 815 814 813 811 809 808 806 805 803 801 800 798 797 795 794 793 792 791 789 787 787 786 785 785 785 786 787 786 786 785 784 784 784 784 784 784 785 786 787 789 789 789 789 788 789 790 791 793 793 793 795 796 798 801 802 804 806 808 810 812 813 814 815 817 819 821 823
829 829 829 830 829 829 829 828 827 826 826 825 825 824 823 821 820 819 818 817 815 813 812 811 809 807 806 804 803 802 800 799 797 796 794 793 792 790 789 788 788 788 788 788 789 788 789 788 787 787 787 787 787 786 786 787 789 790 790 789 789 789 790 791 793 795 795 795 796 797 798 802 802 802 804 807 810 813 814 814 815 817 818 820 822
831 831 831 832 831 831 831 830 829 829 828 828 827 826 825 825 824 823 821 819 817 816 815 814 812 811 809 808 807 805 804 803 801 799 797 796 794 793 792 791 791 791 792 792 792 791 791 791 791 790 790 790 789 788 788 789 791 791 791 791 791 791 792 792 793 794 795 796 797 798 799 801 801 801 803 806 809 811 812 814 815 816 818 821 823
833 833 833 834 834 834 833 832 831 831 830 830 829 829 828 828 827 826 824 822 821 820 819 817 815 814 813 812 810 808 808 807 805 803 801 799 798 796 795 794 794 795 796 796 796 796 795 794 794 793 792 792 791 790 790 793 794 793 793 793 793 792 793 793 793 794 795 796 798 799 799 801 801 802 804 806 807 809 811 813 814 815 817 821 823
835 836 836 836 836 836 836 835 834 833 833 832 831 831 831 831 830 829 827 825 824 823 821 820 819 818 816 814 812 811 811 810 808 806 805 803 801 799 798 798 798 798 799 799 800 799 800 799 797 796 795 795 795 795 795 796 795 794 795 795 795 794 795 796 796 796 797 798 800 801 800 801 801 802 804 806 807 808 810 812 813 814 817 820 823
838 838 838 839 839 839 838 837 836 836 835 834 834 834 834 834 833 831 829 828 826 826 825 824 823 821 819 817 816 815 814 813 812 810 809 807 805 804 803 803 802 802 803 803 803 802 802 803 802 800 800 799 799 799 798 798 797 797 797 798 798 798 799 800 800 800 800 800 801 802 802 802 803 803 805 806 807 808 809 810 812 814 816 819 821
840 840 841 841 841 841 841 840 839 838 838 837 837 837 837 836 835 834 832 830 829 829 829 827 826 825 823 822 821 819 819 818 816 814 813 811 809 808 808 808 807 807 808 808 807 806 805 805 805 804 804 804 803 802 801 801 800 800 800 800 800 801 804 804 803 804 803 802 803 804 803 804 805 804 805 807 808 809 809 810 812 814 815 816 818
842 842 843 843 843 843 842 842 841 841 841 841 841 840 839 839 838 836 835 834 833 832 831 830 829 828 827 827 825 823 823 822 820 818 817 815 814 813 813 812 811 812 812 812 811 810 809 809 808 807 807 807 806 805 804 804 803 802 803 802 801 803 807 806 805 805 805 804 805 806 805 805 806 806 807 808 809 810 810 810 812 812 813 815 817
844 844 845 845 845 845 844 844 844 843 844 843 843 843 842 841 840 839 837 837 836 835 834 832 832 831 831 830 829 827 827 826 825 823 821 819 818 817 816 816 816 816 816 815 814 814 814 813 812 812 811 809 809 808 808 807 806 806 805 805 805 806 808 807 806 806 806 806 807 808 807 807 808 808 808 809 810 810 811 811 812 813 813 814 816
846 846 846 846 847 847 846 846 846 845 846 845 844 844 843 843 842 841 840 840 839 838 837 836 835 835 834 833 832 832 831 830 829 827 825 824 823 821 820 820 820 820 819 819 818 818 818 818 817 816 815 813 812 811 811 810 809 808 808 809 809 809 808 808 808 808 808 809 810 810 810 810 810 810 810 811 811 812 812 812 813 814 814 815 816
847 848 848 848 849 849 848 848 848 847 847 846 845 845 844 844 843 843 843 842 841 841 841 840 839 838 838 837 836 835 835 834 832 831 830 828 827 825 825 825 825 824 822 822 823 823 823 822 822 821 819 817 816 815 814 813 812 811 812 812 812 811 810 810 810 810 810 811 812 813 813 812 813 813 813 813 814 814 814 814 814 815 816 817 817
849 849 849 850 851 851 851 850 850 849 849 848 847 846 846 846 845 845 845 844 844 844 844 843 842 841 840 840 839 839 838 837 836 835 834 833 831 830 830 830 829 827 826 827 828 828 828 827 826 825 823 821 820 819 817 816 815 815 816 815 814 814 813 813 813 813 813 814 815 815 816 816 816 816 816 816 816 816 816 816 817 818 818 819 820
850 850 851 852 853 854 853 853 852 851 851 850 849 848 848 848 847 847 847 846 846 846 846 846 845 844 844 843 843 842 841 841 840 839 838 837 836 835 834 833 832 831 830 831 831 831 831 830 829 828 827 825 824 823 821 820 819 819 819 818 818 818 817 817 817 817 817 817 818 818 819 819 819 819 819 819 819 819 819 819 820 820 821 822 823
852 852 854 854 855 856 856 855 855 854 853 852 851 851 851 850 849 850 849 849 848 848 848 848 848 847 847 846 846 845 844 843 843 841 841 840 839 838 838 837 836 835 834 834 835 834 834 833 832 831 830 829 828 826 825 825 824 823 822 822 821 821 821 821 821 821 820 820 821 821 821 821 821 821 821 822 822 822 822 822 822 823 824 824 825
853 854 855 856 857 857 857 857 857 857 856 855 854 854 853 852 852 852 852 851 851 851 851 851 850 850 850 849 849 848 847 846 845 844 843 842 841 841 840 840 839 839 838 838 838 837 837 836 835 834 833 832 831 830 829 829 828 827 827 826 825 825 825 825 824 824 824 824 823 823 823 823 823 823 823 824 824 824 824 824 825 825 826 826 826
855 855 856 857 858 858 859 859 859 859 859 858 857 857 856 855 854 854 854 854 854 854 854 854 853 853 853 852 852 850 849 848 847 846 845 845 844 843 843 842 841 841 840 840 840 839 839 838 837 836 835 835 834 833 833 832 832 831 830 830 830 829 829 829 828 828 827 827 826 826 825 825 825 825 825 825 826 826 826 826 826 827 827 827 827
856 856 857 858 859 860 860 860 860 860 860 860 860 859 859 858 857 857 857 857 857 857 857 856 856 856 856 855 854 853 852 851 850 849 848 847 847 846 845 844 844 843 842 842 842 842 841 840 839 839 838 837 836 835 835 834 834 833 833 832 832 832 832 832 831 831 830 830 829 828 828 827 827 827 827 827 827 828 828 828 828 828 828 828 828
856 858 859 859 860 861 861 861 861 861 862 862 862 862 862 862 861 861 861 861 860 860 859 859 859 859 858 857 856 855 854 853 853 852 852 851 850 849 848 848 847 846 846 846 845 844 842 842 841 841 840 839 839 838 837 837 836 835 835 834 834 833 833 833 833 832 832 831 831 830 830 829 829 828 828 828 828 829 829 829 829 829 829 829 829
858 859 860 860 861 862 862 863 863 863 863 863 864 864 865 865 864 864 864 864 864 863 862 861 861 861 860 860 859 858 857 857 856 855 854 854 853 852 851 851 850 849 849 848 847 845 844 844 843 843 842 842 841 840 840 839 838 837 837 836 836 835 835 835 834 834 833 832 832 832 831 831 831 830 830 830 830 830 829 829 829 829 830 830 830
859 860 861 862 862 863 863 864 864 865 865 865 865 866 867 867 867 867 867 867 867 866 865 864 864 863 862 862 861 861 860 859 858 857 856 856 855 854 854 853 852 851 851 849 848 847 847 846 846 846 845 844 844 843 842 841 841 840 839 838 838 837 837 836 836 835 834 834 833 833 833 833 832 832 832 832 832 831 831 830 829 829 829 830 831
860 861 862 863 863 864 864 865 865 866 866 867 867 868 868 869 870 870 869 869 869 868 868 867 866 865 865 864 864 863 862 862 861 859 858 858 857 856 856 855 854 854 853 851 850 850 849 848 848 848 847 847 846 845 845 843 843 842 841 840 839 839 838 838 837 836 836 835 835 835 835 835 835 834 834 833 833 833 832 831 830 829 830 831 832
861 862 863 864 864 865 865 866 867 867 868 868 869 869 870 870 871 871 871 871 871 870 870 869 869 868 867 867 866 866 865 864 863 862 861 860 860 859 858 857 856 856 854 853 852 852 851 851 851 851 850 849 848 848 847 846 845 844 843 842 841 841 840 839 838 838 837 837 837 836 836 836 836 836 835 834 834 834 834 833 832 832 832 833 833
863 864 864 865 866 866 867 868 868 869 869 870 870 871 871 871 872 872 873 872 872 872 871 871 871 870 870 869 869 868 867 866 865 864 863 863 862 861 860 859 858 858 856 855 854 854 853 853 853 853 852 851 851 850 849 848 847 846 845 844 843 842 842 841 840 839 838 838 838 838 837 837 837 836 836 836 835 835 835 835 834 834 834 834 834
864 865 866 867 867 868 869 869 870 870 871 871 872 872 872 872 873 873 873 873 873 873 872 872 872 872 871 871 871 870 869 869 868 867 866 865 864 863 862 861 860 859 858 858 857 856 856 855 855 855 854 853 852 851 851 850 849 848 847 845 844 843 843 842 841 841 840 839 839 839 838 838 837 837 837 836 836 836 836 836 836 836 836 836 836
866 867 868 869 869 870 870 871 871 872 872 873 873 873 873 873 874 874 874 874 874 873 873 874 873 873 873 872 872 872 871 870 870 869 868 867 866 865 864 863 862 861 861 860 859 859 858 857 857 856 855 854 854 853 852 851 850 849 848 847 845 845 844 843 842 842 841 840 840 840 839 839 838 838 837 837 837 838 838 838 837 837 837 837 837
867 868 869 870 870 871 872 872 873 873 874 874 875 874 874 875 875 875 875 875 875 875 875 875 875 874 874 873 873 873 872 872 871 871 870 869 868 867 866 865 864 864 863 862 862 861 860 859 859 858 857 856 855 854 854 853 851 850 849 848 847 846 845 844 843 842 842 841 841 841 840 839 839 839 838 838 838 839 839 839 839 839 839 838 838
868 869 870 871 871 872 873 874 874 874 875 875 875 875 875 875 875 876 876 876 876 876 876 875 876 875 875 875 875 874 874 873 872 871 871 870 869 868 868 867 866 866 865 864 864 863 862 861 861 860 859 858 857 856 855 854 853 852 850 849 848 847 846 845 844 843 843 842 841 841 841 840 839 839 839 839 839 840 841 841 840 840 840 839 839
869 870 871 872 872 873 874 874 875 875 875 876 876 876 876 876 876 876 877 877 877 877 876 876 876 876 876 876 876 875 874 873 872 872 872 871 871 870 869 869 868 867 867 866 865 864 863 863 862 861 860 859 858 857 857 855 854 853 852 851 850 849 848 847 846 845 845 844 842 841 841 841 840 840 840 840 840 841 842 842 842 841 841 841 841
870 871 872 872 873 874 874 875 875 875 876 876 876 876 877 877 877 877 877 877 877 877 877 877 877 877 877 877 876 875 875 874 873 873 873 872 872 871 870 870 869 869 868 867 866 865 865 864 863 862 861 860 860 859 858 857 856 855 854 853 852 851 850 849 849 848 847 846 845 843 843 842 842 842 841 841 841 842 842 842 842 842 842 842 842
870 871 872 873 874 874 875 875 876 876 876 877 877 877 878 878 878 878 878 878 878 878 878 878 877 877 877 876 876 875 875 875 874 874 873 873 873 872 871 871 870 870 869 868 867 866 865 865 864 863 862 861 861 860 859 858 857 856 855 854 854 853 852 851 851 850 849 848 847 846 845 844 844 843 843 842 842 842 842 842 843 843 843 843 843
870 872 872 873 874 874 875 876 876 876 877 877 877 878 878 878 879 879 879 879 879 879 878 877 877 877 877 876 876 876 875 875 875 874 874 873 873 872 872 871 871 870 870 869 868 867 866 865 865 864 863 862 862 860 859 859 858 857 856 855 854 854 853 852 851 851 850 850 849 847 846 845 845 844 844 843 843 843 843 843 843 843 843 843 843
871 871 872 872 873 875 875 876 876 877 877 878 878 878 878 878 879 879 879 879 879 878 877 877 876 876 877 876 876 876 875 875 875 874 874 874 873 872 872 872 871 871 870 870 869 868 867 866 865 865 864 863 862 861 860 859 858 858 857 856 855 855 854 853 852 851 851 850 850 849 847 846 845 845 845 844 844 844 844 844 843 843 843 843 843
870 871 872 873 874 875 875 876 876 877 877 878 878 878 878 878 878 878 878 878 878 877 877 877 877 877 877 876 876 876 875 875 875 874 874 874 873 873 872 872 871 871 870 870 869 869 868 867 866 865 864 863 862 861 861 860 859 858 857 857 856 855 855 854 853 852 851 851 850 849 848 847 846 845 845 845 845 844 844 844 844 843 844 844 844
871 872 872 873 874 874 875 875 876 877 877 877 878 878 878 878 878 878 878 877 877 877 876 876 876 877 877 876 876 876 875 875 875 874 874 874 873 873 872 872 872 871 870 870 869 869 868 867 866 865 865 864 863 862 861 860 860 859 858 857 856 856 855 854 854 853 852 852 851 850 849 848 847 846 846 846 845 845 845 844 844 844 844 845 845
871 871 872 873 873 874 875 875 876 876 877 877 877 878 878 878 877 878 878 877 877 876 876 875 876 876 876 876 876 875 875 875 875 874 874 873 873 873 872 872 872 871 870 870 869 869 868 867 866 866 865 864 863 862 862 861 860 860 859 858 857 856 855 854 853 852 852 851 850 850 850 849 848 847 847 846 846 846 845 845 845 845 845 845 845
870 871 872 872 873 874 874 875 875 876 876 877 877 877 877 877 877 877 877 877 877 877 876 875 876 876 876 876 876 875 875 875 875 874 874 874 873 873 872 872 871 871 870 870 869 869 868 867 866 866 865 864 863 862 862 861 861 860 859 858 857 856 855 854 853 852 851 850 850 849 849 849 848 848 847 846 846 846 846 846 846 845 845 845 845
870 871 872 872 873 873 874 874 875 875 876 876 876 877 877 877 877 877 877 877 877 877 877 876 876 876 876 876 876 875 875 875 874 874 874 874 873 873 872 871 871 870 870 869 869 868 867 867 866 866 865 864 863 862 862 861 861 860 859 858 857 855 854 853 852 851 850 849 849 848 848 848 848 848 847 847 846 846 846 846 846 845 846 845 845
870 871 871 872 872 873 873 873 874 874 875 875 875 876 876 876 877 877 877 877 877 877 877 877 877 876 876 876 876 875 875 875 874 874 873 873 872 872 871 871 870 870 869 869 868 868 867 866 866 865 864 864 863 862 861 861 860 860 859 858 856 855 854 853 852 851 850 848 848 847 847 847 847 847 847 847 846 846 846 846 846 845 845 845 845
870 870 871 871 872 872 873 873 873 874 874 875 875 875 875 875 876 876 876 876 876 877 877 877 876 876 876 875 875 875 875 874 874 874 873 873 872 871 871 870 870 869 869 868 868 867 866 866 865 864 864 863 863 862 861 860 860 859 858 857 856 855 853 852 851 850 849 848 847 846 846 846 846 846 846 846 846 846 846 846 845 845 846 845 845
869 870 870 871 871 871 872 872 873 873 874 874 874 875 875 875 875 875 875 875 875 876 876 876 876 875 875 875 875 874 874 874 874 873 873 872 871 871 871 870 869 869 868 867 867 866 866 865 864 863 863 862 862 861 860 860 859 858 858 857 856 854 853 852 851 849 848 847 846 845 844 844 845 845 845 845 845 845 845 845 845 845 845 845 845
Wind_Speed
18 17 16 17 18 20 21 21 21 21 21 21 21 22 21 21 22 22 22 22 21 20 20 20 19 17 15 13 10 8 7 6 5 2 2 3 5 7 6 5 5 5 13 12 14 17 18 17 18 21 21 19 19 19 20 19 17 17 16 16 17 16 15 12 7 8 13 19 20 20 23 27 26 26 26 23 21 21 22 20 19 19 19 19 20
17 16 16 18 19 21 22 22 22 22 22 23 23 23 23 23 23 22 22 22 20 20 19 19 18 15 13 12 9 6 5 5 4 3 3 5 4 6 5 4 3 5 10 11 11 12 15 16 17 19 18 17 17 16 16 16 16 16 15 16 19 19 18 17 14 13 13 16 21 22 24 27 25 25 25 24 23 23 22 20 18 19 19 18 19
16 16 17 19 20 21 22 23 23 23 24 23 23 23 23 23 24 24 23 22 21 20 19 19 18 15 14 14 12 10 9 8 8 7 7 7 5 4 3 3 5 6 8 10 11 11 12 13 14 13 12 13 13 12 11 12 16 18 16 18 20 20 20 20 20 19 16 18 24 25 25 26 25 26 26 24 24 24 22 20 20 20 18 17 18
18 18 19 20 21 21 22 23 24 25 24 23 22 22 21 22 23 25 24 22 22 22 21 21 21 19 16 15 14 14 13 12 11 10 9 8 5 4 3 3 5 6 7 8 9 11 10 9 9 8 9 11 10 10 9 8 12 18 19 21 21 20 22 22 21 22 20 19 23 26 29 28 25 25 26 25 25 24 21 19 20 20 17 15 15
21 21 21 22 22 22 23 24 25 25 24 23 22 21 21 21 21 23 25 23 22 23 23 22 22 21 20 18 17 17 15 14 13 12 11 9 6 6 6 4 4 2 2 4 4 6 8 8 9 8 8 8 7 10 12 10 12 16 18 20 20 20 23 23 20 23 24 22 21 24 28 26 22 23 26 26 26 23 20 20 20 18 16 14 13
23 23 22 22 22 22 23 24 24 24 23 23 22 22 22 21 21 22 25 25 24 23 22 22 22 22 21 20 20 19 17 15 15 14 13 10 8 9 9 8 7 6 3 3 3 3 5 7 8 8 6 8 10 12 14 15 16 15 14 15 17 17 18 15 12 18 25 25 22 23 25 23 22 24 26 27 27 24 21 20 21 19 16 15 14
23 22 21 21 22 23 23 23 24 23 23 23 23 23 23 23 23 24 25 26 26 25 25 24 23 23 23 22 21 19 17 17 16 16 16 13 11 12 12 9 8 7 4 2 2 2 4 3 5 6 6 10 15 15 15 16 15 13 12 12 13 14 14 12 7 8 17 21 22 23 24 23 23 25 25 27 27 24 22 22 22 21 18 17 17
22 21 21 22 23 22 23 23 24 22 22 23 23 24 24 24 25 25 25 25 25 25 26 27 26 24 24 24 23 21 20 20 19 19 19 16 13 13 13 10 7 4 3 3 4 3 4 4 5 7 7 10 13 13 15 15 13 12 13 13 12 14 16 16 11 9 13 17 18 20 23 24 25 24 23 25 25 23 22 23 24 25 24 21 18
22 22 23 23 22 22 22 23 23 22 23 24 24 24 24 25 27 27 27 26 26 26 27 29 29 29 26 26 26 25 25 24 22 21 21 19 17 15 14 14 12 9 8 8 9 6 2 2 5 6 7 9 9 7 10 11 10 11 14 13 12 15 17 17 14 14 15 16 15 18 20 20 22 24 23 24 24 23 23 22 24 28 29 26 21
23 22 23 24 22 22 22 22 22 23 24 24 25 25 25 26 27 28 28 28 28 29 30 31 32 32 32 30 29 28 27 26 23 22 21 20 18 18 17 17 16 14 13 13 12 10 7 4 2 1 2 5 6 5 7 8 7 8 12 12 13 16 18 18 15 17 20 17 13 16 18 14 14 19 20 17 17 20 21 20 23 28 27 22 18
23 23 23 23 22 22 22 22 22 23 24 24 25 26 26 27 27 27 28 29 29 30 31 31 31 32 34 33 32 30 28 25 23 22 21 19 18 19 19 18 17 16 16 16 15 13 11 10 9 8 6 2 3 5 7 7 6 8 10 12 14 16 18 19 19 19 21 18 14 16 19 16 14 15 15 13 12 15 18 19 23 28 25 18 13
24 24 23 23 23 23 22 22 23 23 24 25 26 26 27 28 28 28 28 29 30 31 32 33 32 32 33 34 33 31 29 27 25 23 22 21 20 20 20 19 18 18 17 18 18 16 13 10 8 8 9 8 4 4 8 7 6 8 10 10 12 15 17 19 19 15 16 16 12 11 12 11 12 13 13 13 12 11 14 18 21 23 21 17 14
24 24 23 23 24 23 22 22 23 24 24 25 25 27 29 30 29 29 28 28 30 32 33 34 34 34 34 35 34 32 30 27 26 25 24 24 24 25 24 23 22 21 21 22 21 19 16 13 10 8 8 10 12 14 15 13 11 12 12 11 12 13 13 15 14 11 10 12 11 10 10 13 15 11 8 9 9 6 7 12 16 17 17 17 16
25 24 24 24 23 23 22 23 24 25 25 25 26 27 28 28 28 28 28 29 31 32 33 34 35 35 35 36 36 34 31 27 24 24 25 26 26 27 27 27 27 27 26 25 23 22 20 19 16 12 8 12 16 16 15 15 15 15 15 14 12 11 11 11 12 11 11 12 12 12 13 15 16 12 9 11 13 12 12 12 13 14 13 13 15
24 25 25 25 24 23 23 24 25 26 26 27 28 28 28 28 27 27 28 30 30 31 33 34 35 35 36 37 37 37 34 29 25 24 25 26 28 29 30 30 30 30 29 28 27 25 24 23 21 17 11 11 13 14 14 15 18 21 22 21 17 15 13 12 11 10 10 11 12 12 13 13 14 14 12 12 13 12 13 14 14 13 13 13 15
25 25 26 25 25 24 24 25 25 25 25 26 27 27 27 27 27 27 29 30 31 32 34 35 36 36 36 37 39 39 36 32 28 26 25 27 28 30 31 31 30 30 30 29 28 26 26 26 26 23 17 13 13 14 15 16 20 25 27 27 26 25 23 19 15 14 15 15 15 16 17 16 14 13 12 12 13 13 13 14 13 13 16 17 16
25 26 27 26 26 26 26 27 27 27 27 28 27 26 26 25 26 27 30 31 32 32 33 34 36 37 38 38 39 40 38 34 30 27 26 27 29 31 32 32 32 32 31 31 30 28 27 26 26 26 23 17 15 16 18 19 22 26 28 29 30 29 27 25 22 22 21 19 19 19 19 18 17 15 13 13 13 13 14 17 18 19 20 17 12
25 26 26 26 26 26 26 28 29 29 30 30 29 28 27 27 26 28 30 32 31 31 32 34 36 37 39 39 38 40 40 37 33 30 28 27 29 30 31 32 33 33 32 32 33 32 31 27 26 25 23 19 16 16 18 20 23 24 23 23 24 23 22 22 23 23 22 21 20 18 18 17 17 17 15 14 13 12 15 20 23 23 20 16 13
25 26 25 26 26 26 26 27 27 27 28 27 27 27 27 27 27 29 31 32 32 32 33 35 36 36 37 38 38 39 40 39 37 34 31 29 29 29 30 32 33 33 32 33 34 35 34 32 29 26 23 19 16 16 16 17 19 20 18 19 20 19 16 17 19 19 18 19 18 17 18 17 17 18 16 14 13 12 13 16 18 19 18 18 18
27 27 27 28 28 28 28 27 26 25 25 24 24 24 24 24 25 27 29 30 32 32 33 34 35 34 34 36 37 38 38 38 38 36 35 33 31 30 31 32 32 32 32 33 34 35 34 34 32 29 26 23 21 20 19 19 20 20 19 20 20 18 17 17 17 18 18 19 18 17 18 18 17 18 17 15 14 12 11 14 15 17 18 20 20
26 27 27 28 29 28 27 26 25 25 24 24 24 25 24 24 24 25 26 27 29 31 31 33 34 33 33 34 35 35 35 36 36 36 35 35 34 33 34 33 32 32 33 33 34 34 34 33 31 29 28 27 25 24 24 23 23 23 22 20 17 15 17 17 17 18 19 20 19 19 19 19 17 16 16 15 14 13 11 12 13 15 16 18 18
23 24 25 26 28 28 28 27 26 26 25 25 26 26 26 27 27 26 26 27 27 28 29 30 31 32 33 33 32 32 32 33 34 34 34 34 34 34 34 32 31 32 33 33 32 31 31 31 30 28 27 28 27 26 26 25 25 24 22 20 17 16 17 17 16 18 20 20 20 20 20 19 18 17 16 16 14 13 12 11 12 14 14 15 17
24 24 26 28 29 30 31 30 30 30 29 29 28 28 27 27 27 27 28 28 27 27 27 28 29 31 32 32 32 31 30 30 31 31 31 32 32 32 32 31 30 31 32 31 29 28 27 27 27 26 26 27 27 27 27 27 26 25 23 21 20 19 19 18 18 19 20 20 20 21 20 18 18 18 17 17 15 15 15 15 15 16 17 16 17
25 26 27 28 28 29 32 33 33 34 34 34 34 32 30 29 28 28 28 28 27 26 26 26 27 28 29 30 31 31 30 29 29 28 28 28 28 29 29 29 29 29 29 28 26 24 24 24 24 25 26 26 26 26 27 27 26 25 24 23 23 21 21 21 20 19 20 20 19 19 17 16 17 17 17 16 15 15 17 19 19 19 19 19 18
29 30 29 28 27 27 30 32 34 35 35 36 36 35 33 32 30 28 28 28 28 27 26 25 26 26 27 28 29 29 29 28 27 26 26 25 25 25 25 26 26 25 25 24 22 21 21 21 22 23 24 24 25 25 26 25 24 24 23 22 23 23 22 21 20 20 20 18 17 16 14 13 13 12 13 14 14 12 12 14 15 16 16 16 16
27 29 29 28 28 27 27 28 30 33 35 36 36 35 35 35 33 30 29 28 27 27 26 25 25 25 26 26 27 27 27 27 26 25 24 24 23 23 22 22 22 22 22 21 20 19 19 20 20 21 21 22 22 22 22 21 21 22 21 21 20 20 20 19 18 18 17 15 14 14 13 12 10 9 10 12 12 11 10 11 11 11 11 11 14
22 23 25 26 27 27 27 26 27 30 32 34 36 36 37 37 37 35 31 28 25 25 25 25 25 25 25 25 26 26 26 26 26 26 25 24 23 22 22 22 21 21 20 19 18 17 17 17 17 17 17 18 18 18 18 17 18 18 18 18 17 17 16 15 14 14 13 13 12 12 11 10 9 9 10 12 11 11 13 14 13 13 12 13 16
19 20 20 22 24 25 26 26 27 29 31 32 34 34 35 36 37 36 33 30 26 22 22 22 23 23 23 23 24 26 27 27 27 27 27 25 24 23 24 24 24 23 22 21 20 20 19 19 18 18 18 18 18 18 18 17 17 17 16 16 15 13 13 12 10 10 9 8 7 8 9 9 8 8 8 10 10 10 11 12 12 14 16 17 18
22 21 19 19 20 21 23 24 26 27 29 30 31 32 32 33 34 34 33 33 30 25 21 19 18 19 20 21 23 25 26 25 24 23 23 23 23 23 23 23 23 23 22 22 24 25 25 24 23 23 22 22 21 20 19 18 18 17 16 15 14 13 11 10 9 8 8 7 6 6 6 7 8 7 6 6 8 7 6 7 9 13 16 18 19
22 22 21 19 17 17 18 21 22 24 26 27 28 29 30 31 32 33 33 33 32 31 27 23 19 19 20 21 23 24 25 25 23 20 20 20 21 22 22 22 21 22 22 23 25 26 27 26 26 25 24 24 23 21 19 18 18 17 15 14 13 12 12 11 9 7 6 7 9 9 8 7 8 7 6 5 7 8 7 5 5 9 13 17 20
21 22 22 22 19 17 15 15 16 19 21 23 24 26 27 28 29 30 31 31 31 32 31 29 26 24 24 24 24 24 25 27 26 22 20 20 21 22 22 21 21 22 23 24 26 26 25 25 25 25 25 25 24 22 21 20 18 16 14 13 12 12 12 12 10 9 7 7 8 10 10 10 10 8 6 5 6 8 8 5 2 5 13 18 19
22 23 23 22 22 21 19 16 14 14 14 15 17 19 22 24 25 26 27 28 28 28 29 30 29 28 27 26 26 25 25 27 28 25 21 20 20 22 22 21 21 21 21 23 25 26 26 25 24 24 25 25 24 23 23 23 21 17 13 12 12 12 12 12 10 9 9 9 9 9 9 9 9 8 8 7 6 7 9 8 8 11 16 18 16
24 24 23 23 23 23 22 21 19 16 14 14 14 14 14 17 19 21 23 24 23 23 23 25 26 26 26 27 26 26 25 24 25 25 24 22 20 20 21 20 20 20 21 22 23 24 26 27 26 25 26 25 24 23 23 23 22 20 16 14 13 11 11 11 11 9 8 8 8 8 7 7 7 6 8 9 8 8 9 11 13 16 19 19 20
24 24 23 23 23 22 22 21 21 20 18 17 18 17 15 13 14 15 18 21 22 20 19 19 20 20 22 23 24 23 23 23 24 23 23 23 21 20 21 22 21 21 21 21 21 21 22 23 24 24 25 25 24 23 23 22 21 20 18 16 13 10 9 10 11 11 9 7 6 6 6 6 6 5 7 10 11 11 10 9 11 16 19 21 23
22 22 22 22 22 22 21 20 19 19 19 19 19 19 18 17 16 16 17 21 22 20 19 18 18 18 19 19 20 21 21 22 23 23 23 22 20 20 22 24 25 25 23 21 20 19 19 19 19 19 20 21 21 21 22 22 21 21 21 19 14 11 10 10 10 11 9 7 8 8 6 6 7 6 8 10 12 13 13 12 14 17 19 21 23
22 22 21 20 20 20 20 19 19 19 19 19 19 18 18 18 18 18 19 22 23 22 20 19 19 20 21 19 19 20 20 19 19 21 22 21 20 20 22 24 24 24 24 23 20 18 17 17 17 17 17 18 18 18 19 20 21 21 22 20 14 11 11 10 10 10 10 8 8 7 6 7 7 6 10 12 12 13 14 15 17 19 20 21 22
21 20 19 18 17 18 20 19 19 18 18 18 18 16 16 16 16 16 18 21 23 23 22 20 19 19 21 19 17 18 19 18 17 18 20 20 19 20 21 21 20 20 22 23 21 19 17 16 17 17 17 18 18 17 17 19 20 20 21 20 17 15 14 13 13 13 13 11 8 6 6 8 6 6 10 11 12 12 13 15 19 21 21 20 20
20 20 19 17 17 17 18 18 17 17 17 16 16 16 15 15 16 16 17 19 21 22 22 21 19 18 17 17 15 15 16 17 17 18 18 18 17 18 19 19 18 18 20 21 21 19 16 16 17 17 16 16 16 16 17 19 20 20 20 20 18 18 19 18 17 17 17 15 12 9 7 7 9 9 11 12 12 12 13 15 17 19 18 18 18
20 20 19 18 17 16 16 15 15 14 13 14 14 14 15 15 16 15 15 16 16 19 20 19 18 17 15 14 13 11 12 15 17 17 17 16 16 17 19 18 17 17 20 21 20 18 16 15 16 17 16 15 15 15 16 18 19 19 20 20 19 19 20 20 19 18 18 18 17 14 9 8 11 12 12 12 13 12 12 12 12 13 14 16 17
18 19 18 18 16 14 13 13 13 13 13 13 12 11 12 13 13 15 14 13 13 14 17 16 15 15 14 13 12 10 10 13 15 15 15 14 14 15 17 17 14 15 19 20 18 16 15 15 15 16 16 15 15 14 14 16 16 17 18 19 19 18 19 19 18 18 17 17 17 17 14 12 11 11 10 10 10 9 10 10 10 10 11 13 14
16 17 18 18 17 16 14 12 10 10 12 14 14 13 13 13 13 15 16 13 11 11 11 12 11 11 10 11 11 11 10 11 12 13 12 12 11 13 14 14 12 13 16 18 17 15 13 13 14 15 14 13 13 14 14 15 15 15 15 17 17 17 16 16 16 16 16 15 14 14 15 13 10 8 7 7 6 6 8 10 11 9 9 9 9
15 16 18 18 18 17 15 12 11 11 12 13 14 14 14 14 14 14 13 12 9 8 6 6 6 6 6 7 9 10 9 9 9 10 10 9 9 10 11 11 10 11 13 15 18 17 14 12 13 15 14 13 13 13 13 14 14 15 15 15 15 15 15 15 15 15 14 14 14 14 13 12 9 7 6 5 4 3 4 6 7 7 7 7 7
13 14 17 19 18 16 14 12 12 13 13 10 10 10 10 11 12 11 10 8 6 4 1 1 2 3 4 4 6 8 8 7 7 7 7 7 7 8 8 9 9 10 11 12 15 17 16 16 15 15 14 14 15 13 11 11 12 13 13 13 13 13 14 14 15 16 16 15 14 14 15 13 11 9 8 7 5 4 5 6 6 4 4 4 6
11 13 16 18 17 15 13 12 10 10 9 7 6 8 9 9 9 8 5 4 3 1 3 3 2 2 2 2 3 5 6 6 6 5 5 5 5 5 6 8 8 9 9 9 10 13 15 17 18 17 16 16 16 12 9 10 11 11 11 12 13 13 13 14 15 16 17 16 13 13 14 14 13 12 10 7 5 4 4 5 6 5 5 6 8
11 12 16 18 17 14 13 10 7 6 7 6 5 6 7 6 5 4 2 2 4 6 7 7 5 2 3 3 3 3 4 5 6 5 5 4 4 4 5 7 7 8 9 8 8 10 12 13 16 17 18 18 17 13 10 10 11 11 10 11 12 13 14 15 15 15 16 16 14 12 11 12 12 12 11 9 6 4 3 4 5 6 6 7 7
9 11 15 17 16 13 11 8 6 7 7 6 5 5 5 3 3 2 1 3 6 10 10 4 2 6 7 7 7 7 6 5 5 5 5 4 4 4 4 5 6 7 9 8 7 8 10 11 12 14 16 17 18 15 11 9 10 11 11 12 13 13 14 14 15 15 15 15 14 11 10 10 10 10 9 9 7 6 4 3 4 4 4 4 4
8 10 12 13 13 13 10 8 8 9 7 4 2 2 2 2 2 2 2 5 8 11 10 7 9 9 7 7 8 9 8 7 6 5 5 5 5 5 4 5 5 6 7 7 7 8 10 10 10 11 13 15 16 17 14 11 11 12 12 13 13 13 13 13 13 13 13 13 13 11 10 10 9 8 7 6 6 6 4 3 2 2 2 3 2
5 6 8 9 12 13 11 8 10 10 7 4 3 3 3 4 5 5 5 5 6 8 9 9 9 8 7 7 7 7 7 6 6 6 5 4 5 5 5 6 6 5 5 6 7 8 10 10 9 9 11 12 13 15 15 15 14 14 14 15 14 14 13 12 12 12 11 11 11 11 10 9 9 7 5 4 4 5 4 3 2 3 2 1 2
4 5 5 6 9 9 7 7 9 10 8 6 5 5 4 5 5 6 6 6 6 6 8 9 8 6 6 7 7 6 5 3 4 5 5 4 4 4 4 5 5 4 4 5 7 9 9 9 8 8 8 9 10 11 14 15 16 15 15 16 16 14 13 12 12 12 11 11 10 10 10 9 8 7 5 3 4 4 4 3 3 2 2 2 1
8 7 5 4 6 7 5 4 6 7 6 5 5 5 4 3 2 2 2 3 5 6 7 8 7 5 5 6 6 7 6 5 3 4 5 5 5 4 3 4 5 5 5 6 8 8 8 8 8 8 8 8 8 10 11 13 15 15 15 15 15 14 13 13 13 13 13 11 10 10 9 8 8 7 6 5 3 3 4 5 4 3 3 2 1
8 7 6 5 5 5 5 4 4 5 4 4 2 2 2 1 2 2 3 3 2 3 4 5 5 4 4 5 4 5 5 5 4 4 5 7 6 4 4 5 5 5 6 6 6 7 8 9 9 9 8 8 8 8 9 11 13 13 13 14 14 14 14 14 13 13 14 13 11 9 8 8 7 7 7 7 6 4 4 4 5 6 6 5 3
Wind_Direction
35 35 34 30 28 29 29 29 29 29 30 29 27 23 20 17 13 10 8 7 5 6 4 0 359 356 346 340 330 322 334 346 344 338 338 324 301 291 266 272 299 170 167 190 208 207 208 211 218 218 215 216 217 214 209 203 199 195 187 184 191 191 184 182 170 162 186 199 195 186 187 189 189 192 195 194 191 191 196 200 195 193 200 205 206
39 38 38 35 34 33 33 34 35 36 35 33 30 26 25 22 19 17 15 14 15 13 10 10 12 9 2 359 357 357 13 24 24 27 31 29 353 309 284 259 257 166 165 186 195 205 215 216 223 225 222 224 224 221 213 197 191 197 194 186 185 187 192 195 193 186 181 184 187 188 190 190 188 191 193 190 185 185 190 196 198 201 205 207 208
46 43 43 40 36 32 31 32 34 34 32 30 28 24 22 21 21 21 19 20 25 24 20 22 25 25 21 19 21 27 33 36 30 26 28 34 23 327 296 256 238 208 196 196 192 204 219 224 232 231 225 228 225 223 219 195 191 199 191 185 189 192 197 198 195 192 180 174 181 183 185 189 190 192 195 192 186 184 188 195 200 205 207 209 213
50 49 48 42 35 32 32 32 32 31 28 26 24 21 20 23 24 23 22 26 32 32 30 30 33 37 36 29 25 28 37 43 39 35 31 29 21 349 323 272 247 226 219 222 213 212 217 228 243 240 230 231 225 223 226 205 201 202 186 182 192 197 197 196 195 194 181 170 177 181 181 184 185 189 192 190 187 187 188 192 198 203 205 205 211
53 51 48 42 38 36 35 34 32 31 27 23 22 21 21 25 27 25 25 28 32 36 35 33 36 40 39 36 35 35 38 42 45 45 40 36 32 15 6 344 314 297 247 255 257 240 232 235 245 244 241 246 236 217 212 207 210 207 189 183 192 200 199 196 196 196 184 169 171 179 181 181 181 188 191 186 184 187 191 194 197 200 197 195 200
52 49 45 41 40 38 37 36 34 32 30 26 26 28 28 31 34 34 34 33 35 41 44 40 39 41 40 38 39 42 44 45 48 51 48 47 50 44 39 25 5 4 349 291 294 257 238 240 245 242 235 238 230 208 196 200 209 208 196 190 192 195 198 201 203 198 185 173 167 172 178 178 177 182 189 185 181 184 192 193 194 195 190 190 192
52 50 47 45 43 41 40 39 37 35 32 31 32 34 36 39 41 44 46 44 40 43 46 46 44 43 44 42 40 44 51 54 53 51 48 45 46 48 44 29 11 13 7 324 289 256 260 262 250 243 227 217 215 201 188 192 201 201 195 191 191 190 194 205 211 189 180 172 165 168 174 176 175 177 183 185 181 185 191 184 182 190 195 194 187
55 52 50 48 44 44 45 42 40 38 35 35 37 38 40 43 45 48 52 51 46 42 44 47 48 46 46 47 45 45 50 53 52 48 46 47 53 54 49 41 39 51 62 51 44 6 313 283 236 229 220 207 205 200 191 190 193 192 184 181 190 194 194 195 183 164 175 173 166 171 175 175 176 176 180 184 183 190 197 185 177 187 196 197 188
57 55 53 48 45 46 47 44 41 39 37 38 40 42 43 46 48 50 51 53 52 49 48 48 49 48 48 50 50 49 50 50 50 49 51 58 65 64 58 58 64 76 84 79 78 83 74 249 220 212 211 206 204 203 196 196 200 192 178 176 190 195 195 196 180 161 170 177 176 180 179 175 175 175 178 185 187 192 199 191 180 184 191 192 188
57 57 55 49 46 48 49 46 42 41 40 40 41 44 48 50 49 49 50 53 54 54 53 51 48 47 48 51 53 55 57 56 57 57 58 61 65 63 59 58 62 67 70 68 69 71 65 54 59 9 250 207 202 202 190 194 213 203 184 185 195 195 195 197 185 166 164 165 160 161 156 146 157 169 171 179 188 191 193 187 175 174 178 179 179
56 57 57 53 49 50 50 47 44 44 44 43 44 47 50 52 51 49 50 52 52 53 53 51 47 45 47 50 51 54 57 60 61 61 59 58 58 59 57 57 62 67 66 61 56 53 52 53 53 41 29 32 213 206 182 177 200 208 202 201 199 198 202 199 189 176 166 156 143 142 141 131 128 138 139 134 141 160 169 169 166 166 167 162 157
58 58 57 55 53 53 52 49 48 49 48 49 49 49 52 53 52 51 50 49 50 50 50 49 48 46 48 49 49 50 53 58 62 62 61 60 59 61 62 61 62 67 70 69 67 64 60 53 50 52 49 46 58 130 137 135 158 183 196 201 190 193 203 200 192 179 161 153 147 139 144 152 146 134 130 127 119 123 138 145 154 161 162 157 147
59 59 57 56 55 55 53 51 50 52 52 52 51 50 51 52 51 51 51 50 49 49 48 48 49 49 50 49 48 48 50 54 61 66 67 67 65 65 66 65 67 70 74 75 75 73 67 58 52 56 65 75 90 104 110 114 132 156 168 172 170 174 185 190 193 194 178 174 172 153 161 193 190 164 153 165 168 174 161 147 152 159 155 150 145
59 58 58 58 56 55 54 53 54 55 55 54 53 51 50 49 49 50 50 50 50 48 47 48 50 50 50 49 48 48 48 51 58 65 70 72 73 73 73 73 73 72 70 69 70 70 67 63 59 60 81 100 101 99 101 110 119 125 129 134 141 148 152 157 171 185 184 183 184 171 174 198 201 183 177 190 195 211 216 193 176 169 155 144 142
61 59 58 57 57 56 56 56 57 57 57 56 55 53 51 49 49 50 51 51 50 49 47 48 49 50 50 50 49 48 47 50 57 64 69 72 75 77 79 79 78 75 71 67 65 63 62 62 62 64 77 96 94 89 95 106 107 102 99 99 101 105 108 118 138 154 159 163 169 161 156 171 184 181 182 191 194 203 209 198 184 174 161 145 142
65 62 60 59 59 58 58 59 59 58 57 57 54 52 51 50 49 51 53 54 53 52 50 49 48 48 49 50 50 48 46 48 53 60 66 69 70 71 73 75 76 75 72 69 67 63 59 59 61 64 74 94 101 98 102 106 102 95 90 89 88 87 87 89 101 118 128 135 136 130 128 137 155 167 173 176 177 181 184 181 181 178 161 142 133
69 67 64 63 63 62 62 63 63 61 61 60 58 57 55 53 52 52 54 55 54 53 52 51 50 49 49 50 49 48 47 48 50 55 62 66 67 67 66 67 67 67 66 66 66 67 64 61 60 62 71 87 103 107 104 100 95 90 85 83 82 82 82 83 88 96 104 110 113 114 116 122 131 140 145 150 161 176 176 168 173 175 163 146 132
72 70 67 66 66 66 65 65 65 65 64 64 64 64 63 61 59 58 58 57 56 55 55 54 53 51 51 51 51 50 49 50 52 53 57 62 65 66 66 65 64 63 62 61 61 63 65 65 65 65 68 72 83 96 99 96 93 88 82 81 81 80 81 85 88 91 95 97 99 104 109 112 115 120 127 136 150 174 179 168 169 172 164 152 139
76 74 72 70 69 68 67 66 65 65 64 64 64 64 65 65 63 61 60 58 57 57 56 56 55 53 53 52 53 53 52 52 53 54 55 59 62 65 66 66 64 62 61 59 58 59 60 62 64 69 74 77 79 85 93 98 97 93 91 92 92 89 90 93 92 93 94 94 95 98 101 104 107 111 117 128 139 159 176 172 174 178 170 154 143
81 80 77 74 70 67 66 65 65 65 64 63 63 62 62 62 61 60 59 58 56 55 56 57 56 54 54 54 54 55 54 54 54 54 55 57 60 63 66 65 64 63 61 58 56 55 55 57 59 64 71 78 82 84 89 95 98 97 95 92 91 97 106 105 99 98 95 92 94 96 97 100 104 106 109 113 116 127 152 167 179 188 177 159 150
83 79 77 74 70 66 65 65 66 68 69 69 68 66 63 62 61 61 60 59 58 55 54 56 56 54 54 56 55 56 57 57 56 55 56 57 57 60 62 64 64 65 63 60 57 54 53 54 55 58 63 68 73 77 79 82 86 87 84 82 84 98 109 107 105 106 104 101 100 98 95 96 95 95 95 93 92 97 115 142 168 182 174 158 146
85 80 77 75 72 67 66 68 69 70 72 74 72 69 68 67 65 63 62 61 61 58 55 55 56 55 54 56 57 58 58 60 60 58 58 58 58 59 60 62 63 64 64 62 58 56 54 53 53 54 57 61 64 67 70 73 75 75 75 79 84 91 96 99 105 109 108 107 104 100 96 92 87 81 79 77 77 82 91 108 133 147 148 143 137
87 84 82 80 77 71 68 69 70 69 70 73 72 70 70 69 67 63 62 61 61 60 57 55 55 55 54 55 57 58 59 60 61 61 60 60 62 63 64 63 63 64 65 64 60 58 57 55 53 53 53 56 57 59 61 64 66 67 68 71 75 78 83 87 91 98 102 103 102 99 95 91 87 83 81 80 83 89 95 103 115 122 121 119 120
87 88 88 86 83 76 71 70 70 70 70 70 70 68 67 68 68 65 63 61 59 59 59 56 54 53 52 52 54 57 59 59 60 61 61 60 61 63 65 67 67 67 69 68 65 63 60 57 56 55 54 54 54 54 55 56 57 60 63 64 64 66 70 74 77 82 86 88 88 86 86 88 91 92 91 90 91 93 98 104 108 112 113 111 109
91 92 93 93 91 84 78 74 72 71 71 69 68 67 65 65 65 64 64 61 59 59 60 58 55 52 50 49 50 53 56 57 58 59 59 60 60 61 63 64 65 67 68 68 66 64 62 61 60 58 55 53 52 52 52 51 50 50 51 53 55 55 55 58 63 67 69 69 68 67 67 72 84 96 100 96 89 85 94 105 110 112 113 111 108
98 97 95 96 95 90 85 81 77 75 74 72 71 69 67 66 64 63 63 61 60 61 63 63 60 55 51 49 48 50 51 52 53 54 55 57 59 60 61 61 61 62 63 63 61 60 59 58 58 58 56 53 51 51 52 52 52 49 47 46 46 45 45 44 45 50 54 54 53 54 54 57 70 94 109 105 99 103 114 119 120 125 128 123 112
108 106 100 96 94 93 91 90 86 82 78 76 74 72 70 68 65 62 61 60 60 61 62 63 61 56 52 49 48 47 46 44 43 43 45 49 53 55 57 57 56 55 54 53 52 51 51 52 53 53 53 52 51 53 54 55 57 57 56 54 51 47 44 41 40 42 43 41 41 47 54 62 72 88 101 106 109 122 132 129 125 129 137 133 119
109 113 111 103 96 94 94 92 90 88 84 79 77 75 73 71 69 65 61 59 59 59 59 60 59 56 53 49 46 44 41 38 38 37 37 41 47 51 54 54 52 51 50 49 50 50 49 50 49 47 48 49 51 52 52 53 56 59 61 62 61 59 55 51 49 46 41 37 40 48 58 66 68 72 87 95 96 109 131 139 137 135 131 126 123
94 99 109 111 104 97 95 93 91 90 88 85 82 79 77 76 74 72 67 63 61 60 59 58 57 55 54 50 44 42 40 38 37 37 37 40 44 47 49 49 49 49 50 50 52 52 51 49 47 46 45 44 43 43 44 46 50 54 56 56 58 63 62 59 55 48 43 49 55 53 58 67 62 58 67 72 64 66 91 124 142 147 138 127 128
91 92 97 105 110 106 100 96 93 92 92 91 89 86 83 80 78 76 72 67 64 63 62 61 60 59 59 55 50 47 44 41 39 41 45 48 49 49 49 49 49 51 53 54 53 52 52 51 48 46 45 43 41 39 37 36 37 40 44 48 53 54 50 49 50 43 36 48 55 54 62 75 73 70 70 57 42 38 44 65 119 150 150 140 136
94 93 91 92 96 102 104 103 100 96 94 92 92 91 89 84 81 79 75 70 66 65 64 64 64 64 64 63 60 55 50 46 47 54 60 59 57 56 54 55 56 57 57 58 54 50 50 50 48 46 45 44 43 42 39 34 31 32 35 39 41 41 37 35 37 38 37 48 60 63 64 70 75 77 70 57 47 46 48 41 50 149 160 158 152
95 93 92 90 89 90 93 96 100 103 100 94 91 93 95 92 86 80 76 71 68 66 65 64 64 64 64 62 59 54 51 49 50 54 60 62 60 57 53 54 55 52 51 54 52 47 46 46 44 42 42 41 40 39 39 36 33 32 32 29 29 32 33 27 25 31 40 49 61 69 66 63 68 68 57 58 73 76 74 78 94 126 147 152 145
93 90 90 90 89 87 87 86 87 91 97 96 89 86 93 100 95 84 76 70 66 63 62 62 62 62 62 61 57 52 50 50 50 49 52 57 61 59 55 56 55 50 47 51 51 47 46 46 43 40 39 39 37 36 37 36 34 34 35 34 34 37 36 29 24 26 37 50 63 73 69 60 65 66 54 58 78 88 87 93 101 108 116 117 109
93 91 88 87 87 87 87 86 83 83 86 90 88 79 75 88 100 93 79 70 65 61 58 57 56 56 57 59 58 54 49 49 50 50 50 52 54 56 56 56 54 52 52 53 50 45 44 47 45 41 37 37 36 34 33 33 31 29 27 28 34 36 30 26 27 27 31 45 52 50 44 38 39 50 55 61 74 83 84 91 99 99 102 104 102
96 95 92 89 88 88 89 88 87 85 83 84 85 79 72 80 98 101 87 75 69 63 61 60 54 47 47 53 59 58 52 49 50 53 53 49 47 48 50 50 48 47 47 49 50 49 47 46 45 39 33 33 34 31 27 26 25 22 18 17 22 29 28 27 32 31 28 30 33 29 25 24 32 61 82 82 83 84 83 91 102 105 107 108 107
102 100 98 97 96 95 94 90 87 86 83 83 84 81 76 82 98 104 92 79 72 68 67 66 62 55 54 59 65 64 58 51 47 49 52 51 47 45 47 47 45 42 40 42 47 53 52 47 42 36 28 29 33 29 22 19 19 18 18 15 14 18 19 15 15 17 14 15 28 31 16 7 23 78 100 94 91 92 90 95 105 110 114 114 109
109 106 103 99 98 101 101 98 92 90 88 86 84 82 77 76 85 99 97 84 74 72 70 68 65 62 59 60 65 65 59 52 46 44 46 49 49 47 45 45 44 42 39 38 42 50 54 49 43 40 35 34 34 30 22 19 16 15 19 23 24 23 20 13 9 10 8 6 12 12 4 10 35 105 113 97 95 100 100 100 104 107 112 114 110
109 106 101 95 93 95 98 98 97 98 100 97 92 89 86 76 72 87 102 94 79 76 76 71 65 60 55 54 61 64 57 51 49 47 44 44 45 45 43 45 49 48 40 35 35 43 51 49 41 37 35 32 32 30 26 23 21 20 22 26 28 29 29 29 31 31 26 21 17 7 5 36 72 104 107 94 94 103 107 106 105 103 104 108 110
107 105 101 98 96 93 87 84 85 91 99 105 103 99 97 88 76 81 103 109 92 79 77 74 68 62 54 52 57 61 58 56 54 50 46 46 49 49 46 47 52 48 38 32 32 38 45 44 36 31 29 26 26 28 25 22 24 27 27 25 27 31 35 37 40 40 35 32 33 30 31 63 92 100 96 91 94 100 101 102 101 98 98 103 109
115 114 111 108 106 102 93 81 75 73 75 80 89 98 103 97 81 73 87 109 110 90 76 73 72 66 58 53 52 55 63 66 59 50 48 52 57 54 48 47 51 44 33 29 31 35 38 37 30 26 26 24 22 22 19 16 19 24 25 23 26 32 34 35 37 37 33 32 36 38 43 62 88 96 91 90 94 94 93 94 95 96 99 103 107
126 127 124 116 108 106 103 92 80 77 73 67 72 87 95 89 76 66 65 80 104 103 82 70 68 65 63 60 55 57 68 69 57 51 55 60 59 53 47 45 45 36 27 28 33 32 29 24 19 18 23 27 25 20 17 13 12 13 15 17 18 21 24 27 28 30 31 32 33 33 33 38 51 67 74 77 81 82 88 94 95 94 97 100 101
127 131 132 125 113 107 107 102 94 96 90 74 70 81 85 80 78 71 58 59 83 102 91 70 60 61 70 68 57 57 65 63 53 57 64 63 56 49 43 41 36 27 24 32 38 35 28 22 13 9 12 16 14 14 18 15 7 3 5 10 11 9 10 14 15 18 22 26 25 25 26 27 30 38 43 43 40 58 104 113 105 96 95 92 89
131 136 141 136 122 110 110 114 112 109 104 89 79 86 85 77 75 70 54 55 80 105 108 24 31 47 69 71 57 59 61 52 51 64 67 58 52 45 34 32 34 26 20 29 36 36 36 33 24 13 9 6 3 5 17 19 8 359 358 3 6 5 1 359 360 3 5 8 14 22 29 34 38 41 44 51 63 88 121 131 121 103 104 105 97
144 145 147 140 126 114 114 119 123 125 123 111 97 103 104 93 83 74 56 49 53 350 285 281 319 12 50 68 56 61 64 55 54 63 57 46 47 39 25 27 32 22 14 20 27 31 36 37 31 25 21 15 10 11 18 16 7 358 354 355 359 1 358 354 353 353 352 351 357 13 27 37 43 44 46 54 68 77 88 102 102 100 118 134 127
166 158 152 144 137 134 133 129 126 133 136 126 108 110 115 112 104 96 74 352 339 335 316 297 300 9 65 74 56 61 72 66 55 49 43 39 36 26 24 32 29 14 10 15 17 19 27 31 30 27 25 23 20 20 17 11 7 2 357 355 355 353 350 347 344 341 338 336 341 353 9 24 37 44 44 43 44 42 51 85 99 102 114 132 135
152 152 153 151 148 145 139 132 129 131 130 124 118 117 117 131 163 158 102 8 352 349 345 337 119 104 87 79 77 76 74 63 42 31 32 38 38 30 29 29 18 14 18 18 6 3 10 16 18 21 23 24 24 22 11 356 352 352 348 345 344 340 335 331 329 328 326 324 326 331 341 358 20 39 49 50 49 49 58 83 91 87 104 133 135
129 138 149 158 157 148 137 128 131 131 123 111 120 136 119 125 170 167 99 49 23 15 27 72 113 113 89 78 79 72 59 48 41 43 51 54 50 45 37 20 8 9 13 9 358 356 359 359 1 9 16 22 27 27 18 4 355 353 350 344 339 334 330 327 325 325 324 320 317 315 315 326 346 13 38 50 45 38 51 77 60 26 68 133 134
134 133 134 146 153 152 150 150 152 152 147 130 112 96 74 71 76 79 76 58 30 21 39 68 88 92 83 75 68 56 53 57 56 56 59 53 40 32 20 7 3 1 359 358 359 358 354 348 343 352 4 14 24 29 26 20 12 3 356 351 346 338 334 332 330 327 324 319 313 308 304 305 312 328 353 18 15 6 14 31 3 330 307 244 215
144 136 131 142 151 155 163 169 168 172 178 169 137 112 89 74 61 52 51 51 43 40 48 57 61 65 68 61 48 40 46 58 48 40 40 29 14 8 1 358 2 3 358 355 354 351 348 344 337 336 344 356 11 23 27 24 19 9 357 352 350 345 340 337 334 330 326 319 308 299 293 289 289 292 300 321 336 331 329 341 350 333 293 280 245
158 159 168 169 156 150 150 148 148 152 151 138 125 118 111 95 61 42 56 60 55 51 46 39 33 37 50 55 49 41 36 34 40 47 39 17 352 337 343 2 4 355 344 341 338 335 335 336 333 326 321 330 350 10 18 19 18 14 5 358 357 355 349 345 341 335 330 322 309 294 282 273 270 271 269 271 290 304 300 299 300 290 281 289 223
177 177 182 180 170 174 177 161 136 129 122 107 105 138 154 234 268 224 173 141 91 48 24 17 28 55 61 47 31 20 19 24 40 50 34 21 12 6 4 4 1 352 344 336 328 325 329 330 326 318 309 314 335 356 5 6 9 12 9 4 4 3 358 352 347 342 337 329 316 295 272 256 254 259 260 258 265 278 292 297 291 279 273 273 261